Huntingburg, IN

9:05 AM EST on November 22, 2017 (GMT -0500)
Huntingburg

Weather History for KHNB - January, 2014

Change the Weather History Date:

Thursday, January 16, 2014

  Actual Average Record
Temperature  
Mean Temperature 27 °F -  
Max Temperature 37 °F 36 °F 60 °F (2017)
Min Temperature 17 °F 22 °F -2 °F (2009)
Degree Days  
Heating Degree Days 38    
Moisture  
Dew Point 21 °F    
Average Humidity 74    
Maximum Humidity 87    
Minimum Humidity 60    
Precipitation  
Precipitation 0.00 in - - ()
Sea Level Pressure  
Sea Level Pressure 29.88 in    
Wind  
Wind Speed 9 mph (South)    
Max Wind Speed 17 mph    
Max Gust Speed 24 mph    
Visibility 10 miles    
Events      
Averages and records for this station are not official NWS values.
T = Trace of Precipitation, MM = Missing Value Source: NWS Daily Summary

Daily Weather History Graph

Daily Weather History Graph

Search for Another Location

Airport or City:

Trip Planner

Search our weather history database for the weather conditions in past years. The results will help you decide how hot, cold, wet, or windy it might be!

Date:

Astronomy

Jan. 16, 2014 Rise Set
Actual Time 8:02 AM EST 5:52 PM EST
Civil Twilight 7:34 AM EST 6:21 PM EST
Nautical Twilight 7:01 AM EST 6:54 PM EST
Astronomical Twilight 6:29 AM EST 7:25 PM EST
Moon 6:42 PM EST (1/16) 7:57 AM EST (1/16)
Length of Visible Light 10h 47m
Length of Day
9h 49m
Full, 100% of the Moon is Illuminated
Jan 16
Full
Jan 24
Last Quarter
Jan 30
New
Feb 6
First Quarter
Feb 14
Full

Hourly Weather History & Observations

Time (EST) Temp. Windchill Dew Point Humidity Pressure Visibility Wind Dir Wind Speed Gust Speed Precip Events Conditions
12:15 AM 17.6 °F 10.7 °F 12.2 °F 79% 30.08 in 10.0 mi SSE 4.6 mph - N/A   Clear
12:35 AM 17.6 °F 12.3 °F 12.2 °F 79% 30.07 in 10.0 mi South 3.5 mph - N/A   Clear
12:55 AM 19.4 °F 12.8 °F 12.2 °F 74% 30.06 in 10.0 mi South 4.6 mph - N/A   Clear
1:15 AM 19.4 °F 11.5 °F 12.2 °F 74% 30.06 in 10.0 mi South 5.8 mph - N/A   Clear
1:35 AM 19.4 °F 11.5 °F 12.2 °F 74% 30.06 in 10.0 mi South 5.8 mph - N/A   Clear
1:55 AM 19.4 °F 10.4 °F 14.0 °F 80% 30.06 in 10.0 mi South 6.9 mph - N/A   Clear
2:15 AM 19.4 °F 8.6 °F 14.0 °F 80% 30.05 in 10.0 mi South 9.2 mph - N/A   Clear
2:35 AM 19.4 °F 10.4 °F 14.0 °F 80% 30.04 in 10.0 mi South 6.9 mph - N/A   Clear
2:55 AM 19.4 °F 10.4 °F 14.0 °F 80% 30.04 in 10.0 mi South 6.9 mph - N/A   Clear
3:15 AM 19.4 °F 10.4 °F 14.0 °F 80% 30.04 in 10.0 mi South 6.9 mph - N/A   Clear
3:35 AM 19.4 °F 11.5 °F 15.8 °F 86% 30.03 in 10.0 mi South 5.8 mph - N/A   Clear
3:55 AM 21.2 °F 11.7 °F 15.8 °F 80% 30.01 in 10.0 mi South 8.1 mph - N/A   Clear
4:15 AM 21.2 °F 10.9 °F 15.8 °F 80% 30.00 in 10.0 mi South 9.2 mph - N/A   Clear
4:35 AM 21.2 °F 11.7 °F 15.8 °F 80% 29.99 in 10.0 mi South 8.1 mph - N/A   Clear
4:55 AM 21.2 °F 11.7 °F 15.8 °F 80% 29.99 in 10.0 mi South 8.1 mph - N/A   Clear
5:15 AM 21.2 °F 10.9 °F 17.6 °F 86% 29.99 in 10.0 mi South 9.2 mph - N/A   Mostly Cloudy
5:35 AM 23.0 °F 12.4 °F 17.6 °F 80% 29.99 in 10.0 mi South 10.4 mph - N/A   Overcast
5:55 AM 23.0 °F 11.1 °F 17.6 °F 80% 29.96 in 10.0 mi South 12.7 mph - N/A   Overcast
6:15 AM 23.0 °F 12.4 °F 17.6 °F 80% 29.94 in 10.0 mi South 10.4 mph 17.3 mph N/A   Mostly Cloudy
6:35 AM 24.8 °F 13.4 °F 17.6 °F 74% 29.94 in 10.0 mi South 12.7 mph - N/A   Mostly Cloudy
6:55 AM 24.8 °F 14.0 °F 17.6 °F 74% 29.93 in 10.0 mi South 11.5 mph - N/A   Mostly Cloudy
7:15 AM 24.8 °F 12.9 °F 17.6 °F 74% 29.92 in 10.0 mi South 13.8 mph - N/A   Scattered Clouds
7:35 AM 24.8 °F 12.9 °F 17.6 °F 74% 29.92 in 10.0 mi South 13.8 mph - N/A   Partly Cloudy
7:55 AM 24.8 °F 13.4 °F 17.6 °F 74% 29.92 in 10.0 mi South 12.7 mph - N/A   Mostly Cloudy
8:15 AM 24.8 °F 13.4 °F 17.6 °F 74% 29.92 in 10.0 mi South 12.7 mph - N/A   Overcast
8:35 AM 26.6 °F 15.2 °F 17.6 °F 69% 29.92 in 10.0 mi South 13.8 mph - N/A   Overcast
8:55 AM 26.6 °F 15.7 °F 17.6 °F 69% 29.91 in 7.0 mi South 12.7 mph - N/A   Scattered Clouds
9:15 AM 26.6 °F 15.2 °F 19.4 °F 74% 29.91 in 5.0 mi South 13.8 mph 19.6 mph N/A   Mostly Cloudy
9:35 AM 26.6 °F 14.7 °F 19.4 °F 74% 29.92 in 8.0 mi South 15.0 mph - N/A   Overcast
9:55 AM 26.6 °F 13.8 °F 19.4 °F 74% 29.92 in 3.0 mi South 17.3 mph 23.0 mph N/A   Overcast
10:15 AM 26.6 °F 17.5 °F 19.4 °F 74% 29.92 in 5.0 mi South 9.2 mph - N/A   Overcast
10:35 AM 26.6 °F 16.2 °F 19.4 °F 74% 29.91 in 1.5 mi South 11.5 mph 18.4 mph N/A   Overcast
10:55 AM 26.6 °F 16.2 °F 21.2 °F 80% 29.89 in 6.0 mi South 11.5 mph 18.4 mph N/A   Mostly Cloudy
11:15 AM 26.6 °F 16.2 °F 21.2 °F 80% 29.87 in 9.0 mi South 11.5 mph 17.3 mph N/A   Scattered Clouds
11:35 AM 26.6 °F 13.8 °F 21.2 °F 80% 29.83 in 10.0 mi SSE 17.3 mph 21.9 mph N/A   Partly Cloudy
11:55 AM 28.4 °F 18.0 °F 21.2 °F 74% 29.82 in 10.0 mi South 12.7 mph 19.6 mph N/A   Scattered Clouds
12:15 PM 28.4 °F 17.5 °F 21.2 °F 74% 29.83 in 10.0 mi South 13.8 mph 21.9 mph N/A   Overcast
12:35 PM 30.2 °F 20.8 °F 21.2 °F 69% 29.83 in 10.0 mi South 11.5 mph - N/A   Overcast
12:55 PM 30.2 °F 20.2 °F 19.4 °F 64% 29.81 in 10.0 mi SSW 12.7 mph 17.3 mph N/A   Overcast
1:15 PM 30.2 °F 19.3 °F 19.4 °F 64% 29.78 in 10.0 mi South 15.0 mph - N/A   Overcast
1:35 PM 30.2 °F 18.5 °F 19.4 °F 64% 29.76 in 10.0 mi South 17.3 mph 24.2 mph N/A   Overcast
1:55 PM 32.0 °F 22.1 °F 19.4 °F 60% 29.75 in 10.0 mi South 13.8 mph 19.6 mph N/A   Overcast
2:15 PM 32.0 °F 23.0 °F 19.4 °F 60% 29.75 in 10.0 mi South 11.5 mph - N/A   Overcast
2:35 PM 33.8 °F 24.3 °F 21.2 °F 60% 29.75 in 10.0 mi South 13.8 mph - N/A   Overcast
2:55 PM 33.8 °F 24.8 °F 21.2 °F 60% 29.75 in 10.0 mi South 12.7 mph - N/A   Overcast
3:15 PM 33.8 °F 25.3 °F 21.2 °F 60% 29.75 in 10.0 mi South 11.5 mph - N/A   Mostly Cloudy
3:35 PM 35.6 °F 27.5 °F 23.0 °F 60% 29.74 in 10.0 mi South 11.5 mph - N/A   Scattered Clouds
3:55 PM 35.6 °F 27.5 °F 23.0 °F 60% 29.76 in 10.0 mi SSW 11.5 mph - N/A   Mostly Cloudy
4:15 PM 35.6 °F 28.6 °F 23.0 °F 60% 29.76 in 10.0 mi SSW 9.2 mph - N/A   Mostly Cloudy
4:35 PM 35.6 °F 28.6 °F 24.8 °F 65% 29.77 in 10.0 mi South 9.2 mph - N/A   Mostly Cloudy
4:55 PM 35.6 °F 29.2 °F 24.8 °F 65% 29.77 in 10.0 mi South 8.1 mph - N/A   Scattered Clouds
5:15 PM 35.6 °F 29.2 °F 24.8 °F 65% 29.77 in 10.0 mi South 8.1 mph - N/A   Clear
5:35 PM 35.6 °F 28.0 °F 24.8 °F 65% 29.78 in 10.0 mi South 10.4 mph - N/A   Partly Cloudy
5:55 PM 35.6 °F 28.6 °F 24.8 °F 65% 29.78 in 10.0 mi SSW 9.2 mph - N/A   Partly Cloudy
6:15 PM 35.6 °F 28.6 °F 24.8 °F 65% 29.79 in 10.0 mi SSW 9.2 mph - N/A   Clear
6:35 PM 35.6 °F 28.6 °F 24.8 °F 65% 29.80 in 10.0 mi SSW 9.2 mph - N/A   Clear
6:55 PM 35.6 °F 28.6 °F 24.8 °F 65% 29.80 in 10.0 mi SSW 9.2 mph - N/A   Scattered Clouds
7:15 PM 37.4 °F 30.3 °F 24.8 °F 60% 29.80 in 10.0 mi SSW 10.4 mph - N/A   Scattered Clouds
7:35 PM 35.6 °F 29.2 °F 26.6 °F 70% 29.81 in 10.0 mi SSW 8.1 mph - N/A   Mostly Cloudy
7:55 PM 35.6 °F 28.0 °F 26.6 °F 70% 29.81 in 10.0 mi SSW 10.4 mph - N/A   Mostly Cloudy
8:15 PM 35.6 °F 28.6 °F 26.6 °F 70% 29.83 in 10.0 mi West 9.2 mph - N/A   Mostly Cloudy
8:35 PM 35.6 °F 29.2 °F 28.4 °F 75% 29.85 in 9.0 mi West 8.1 mph - N/A   Overcast
8:55 PM 35.6 °F 29.2 °F 28.4 °F 75% 29.85 in 10.0 mi SW 8.1 mph - N/A   Scattered Clouds
9:15 PM 35.6 °F 29.2 °F 28.4 °F 75% 29.84 in 10.0 mi SW 8.1 mph - N/A   Clear
9:35 PM 33.8 °F 25.3 °F 30.2 °F 87% 29.85 in 10.0 mi WSW 11.5 mph - N/A   Mostly Cloudy
9:55 PM 35.6 °F 27.5 °F 30.2 °F 81% 29.85 in 10.0 mi West 11.5 mph - N/A   Mostly Cloudy
10:15 PM 33.8 °F 28.6 °F 30.2 °F 87% 29.84 in 10.0 mi SW 5.8 mph - N/A   Partly Cloudy
10:35 PM 33.8 °F 28.6 °F 30.2 °F 87% 29.84 in 10.0 mi South 5.8 mph - N/A   Scattered Clouds
10:55 PM 33.8 °F 29.6 °F 30.2 °F 87% 29.83 in 10.0 mi South 4.6 mph - N/A   Scattered Clouds
11:15 PM 33.8 °F 26.4 °F 30.2 °F 87% 29.84 in 10.0 mi SSW 9.2 mph - N/A   Mostly Cloudy
11:35 PM 33.8 °F 26.4 °F 30.2 °F 87% 29.82 in 10.0 mi South 9.2 mph - N/A   Mostly Cloudy
11:55 PM 33.8 °F 27.0 °F 30.2 °F 87% 29.82 in 10.0 mi SSW 8.1 mph - N/A   Partly Cloudy